Flag for Germany Weather past 2 weeks in Gross-Gerau, Hesse, Germany

Now
50 °F

Overcast.


Feels Like: 46 °F
Forecast: 51 / 53 °F
Wind: 12 mph from Southwest

Location: Frankfurt-M-Flughafen Airport

Current Time: Mar 28, 2015 at 8:23:03 PM

Latest Report: Mar 28, 2015 at 7:50 PM


Visibility: N/A

Pressure: 30.01 "Hg

Humidity: 71%

Dew point: 41 °F

Location of Gross-GerauLocation

Historic Weather in Gross-Gerau — Graph

°F

Gross-Gerau temperature yesterday

Maximum temperature yesterday: 52 °F (at 3:50 PM)
Minimum temperature yesterday: 39 °F (at 6:20 AM)
Average temperature yesterday: 46 °F

Past Weeks' High & Low Weather Summary

 TemperatureHumidityPressure
High64 °F (Mar 18, 2:50 PM)100% (Mar 21, 5:50 AM)30.30 "Hg (Mar 21, 5:50 AM)
Low28 °F (Mar 24, 3:50 AM)32% (Mar 26, 4:50 PM)29.59 "Hg (Mar 25, 2:20 PM)
Average45 °F69%30.08 "Hg
* Reported Mar 13 7:20 PM — Mar 28 7:20 PM, Gross-Gerau, Weather by CustomWeather, © 2015

Note: Actual official high and low records may vary slightly from our data, if they occured in-between our weather recording intervals... More about our weather records

Advertising

Gross-Gerau weather history for previous 24 hours

 ConditionsComfort  
Time TempWeatherWind HumidityBarometerVisibility
7:20 PM
Sat, Mar 28
50 °FOvercast.10 mph71%29.98 "HgN/A
6:50 PM50 °FLight rain. Overcast.13 mph71%30.01 "HgN/A
6:20 PM50 °FLight rain. Overcast.12 mph71%30.01 "HgN/A
5:50 PM50 °FLight rain. Overcast.15 mph76%30.01 "HgN/A
5:20 PM52 °FLight rain. Overcast.12 mph62%30.01 "HgN/A
4:50 PM52 °FLight rain. Overcast.9 mph67%30.01 "HgN/A
4:20 PM52 °FLight rain. Overcast.10 mph62%30.01 "HgN/A
3:50 PM54 °FLight rain. Overcast.16 mph51%30.04 "HgN/A
3:20 PM55 °FSunny.16 mph38%30.04 "Hg10 mi
2:50 PM55 °FSunny.17 mph38%30.04 "Hg10 mi
2:20 PM55 °FSunny.15 mph38%30.04 "Hg10 mi
1:50 PM55 °FPassing clouds.15 mph36%30.07 "HgN/A
1:20 PM55 °FPassing clouds.14 mph36%30.07 "HgN/A
12:50 PM54 °FPassing clouds.14 mph38%30.09 "HgN/A
12:20 PM55 °FSunny.10 mph38%30.09 "Hg10 mi
11:50 AM52 °FPassing clouds.13 mph41%30.12 "HgN/A
11:20 AM52 °FScattered clouds.8 mph47%30.12 "HgN/A
10:50 AM50 °FScattered clouds.9 mph47%30.15 "HgN/A
10:20 AM50 °FScattered clouds.8 mph54%30.18 "HgN/A
9:50 AM48 °FPassing clouds.6 mph54%30.18 "HgN/A
9:20 AM46 °FSunny.7 mph62%30.18 "Hg10 mi
8:50 AM45 °FPassing clouds.6 mph66%30.18 "HgN/A
8:20 AM45 °FSunny.6 mph66%30.21 "Hg10 mi
7:50 AM43 °FSunny.7 mph71%30.21 "Hg10 mi
7:20 AM41 °FPassing clouds.3 mph76%30.21 "HgN/A
6:50 AM36 °FSunny.7 mph93%30.21 "Hg10 mi
6:20 AM36 °FSunny.2 mph87%30.21 "Hg10 mi
5:50 AM37 °FClear.3 mph81%30.21 "Hg10 mi
5:20 AM37 °FClear.5 mph87%30.21 "Hg10 mi
4:50 AM37 °FPassing clouds.5 mph87%30.21 "HgN/A
4:20 AM37 °FClear.3 mph87%30.21 "Hg10 mi
3:50 AM39 °FClear.2 mph81%30.21 "Hg10 mi
3:20 AM41 °FClear.6 mph76%30.21 "Hg10 mi
2:50 AM43 °FClear.5 mph71%30.21 "Hg10 mi
2:20 AM43 °FClear.3 mph71%30.21 "Hg10 mi
1:50 AM43 °FClear.5 mph71%30.24 "Hg10 mi
1:20 AM43 °FClear.5 mph71%30.21 "Hg10 mi
12:50 AM41 °FClear.5 mph76%30.21 "Hg10 mi
12:20 AM43 °FClear.2 mph71%30.21 "Hg10 mi
11:50 PM
Fri, Mar 27
43 °FPassing clouds.3 mph71%30.21 "HgN/A
11:20 PM45 °FPassing clouds.3 mph66%30.21 "HgN/A
10:50 PM45 °FClear.2 mph61%30.21 "Hg10 mi
10:20 PM45 °FClear.2 mph61%30.21 "Hg10 mi
9:50 PM46 °FClear.3 mph57%30.21 "Hg10 mi
9:20 PM46 °FClear.5 mph57%30.18 "Hg10 mi
8:50 PM48 °FPassing clouds.6 mph54%30.18 "HgN/A
8:20 PM48 °FClear.7 mph54%30.18 "Hg10 mi
Weather by CustomWeather, © 2015

See weather overviewHow to use our weather pages